Wind_Speed
4 4 4 5 6 7 7 7 8 8 8 8 8 8 9 9 9 8 8 8 7 6 5 5 5 4 4 3 3 2 1 1 1 2 2 2 2 2 2 2 2 2 2
4 4 5 6 7 7 7 8 8 8 8 8 8 7 8 8 8 8 8 7 6 5 5 4 4 4 3 3 3 2 1 1 2 2 1 2 1 1 1 1 1 2 2
5 5 5 6 7 7 7 8 8 8 8 8 7 7 8 8 7 7 7 6 5 5 5 4 3 3 3 3 3 2 3 3 2 2 1 1 0 1 1 1 1 1 1
5 6 6 6 7 8 8 9 9 8 8 8 7 7 7 6 6 7 7 6 5 4 4 4 2 2 2 2 2 2 3 2 2 1 0 0 0 1 1 1 1 1 1
6 7 7 7 7 8 9 10 9 9 8 8 7 6 6 6 6 7 7 6 5 4 4 3 2 1 1 1 1 1 1 0 1 1 1 1 1 1 1 1 2 1 1
7 7 8 8 8 8 9 9 9 8 8 8 7 6 7 6 6 6 5 5 5 4 4 3 2 1 1 0 0 0 0 1 1 2 2 2 2 1 1 2 2 2 2
7 7 8 9 9 9 9 9 9 8 8 8 7 7 6 6 5 5 6 5 4 4 4 3 2 1 1 0 0 1 1 1 2 3 3 3 2 2 2 2 2 2 3
7 7 8 9 9 9 9 9 8 8 7 7 6 6 5 6 5 4 5 4 4 3 3 2 2 1 0 0 1 1 1 2 3 3 3 2 3 2 2 2 3 3 3
8 8 8 9 9 9 9 9 9 8 7 7 6 6 5 5 4 4 4 3 3 3 3 2 1 1 1 1 1 2 2 2 3 3 2 2 2 3 3 3 3 3 4
9 9 10 9 10 11 10 9 9 8 8 7 6 6 5 5 4 4 4 3 3 3 2 1 0 1 1 1 1 2 2 2 3 3 2 2 2 3 3 3 3 4 5
11 11 11 11 11 11 11 10 9 8 7 7 6 5 4 4 4 4 4 3 2 1 1 1 1 2 2 1 1 2 2 3 3 3 3 3 3 3 4 4 4 5 5
12 12 12 12 12 11 11 10 9 8 7 6 5 5 4 4 4 4 4 3 2 1 1 2 2 2 2 2 1 2 2 2 2 3 3 3 3 3 4 4 4 5 6
12 13 13 13 12 12 11 10 9 8 7 6 5 5 4 4 4 5 4 3 2 1 1 1 2 2 2 2 2 2 1 1 2 3 3 3 3 4 4 5 5 6 6
13 13 13 13 12 12 11 10 9 8 7 6 5 4 4 4 4 4 4 3 2 1 1 1 1 2 2 1 2 2 2 2 2 3 3 3 3 4 4 4 6 7 7
13 13 13 13 12 11 10 10 9 8 7 7 6 5 4 4 4 4 4 3 2 2 1 1 0 0 0 1 1 2 2 2 3 3 4 4 4 4 4 5 6 7 7
13 13 13 12 12 11 10 9 9 8 7 7 6 5 5 4 4 4 3 3 2 2 1 1 1 1 1 1 1 1 2 2 3 4 4 4 4 5 5 5 6 6 6
12 12 12 12 12 11 11 10 9 8 7 7 6 5 5 5 5 5 5 5 3 2 1 1 1 1 1 2 2 2 2 2 3 4 4 4 4 5 5 5 5 6 6
11 11 11 11 11 11 10 9 9 8 8 7 7 6 6 6 6 6 6 5 4 3 3 3 2 3 3 3 3 3 3 3 3 4 4 4 5 5 5 6 6 6 6
11 10 10 10 10 10 9 9 9 8 8 7 7 7 7 6 6 6 5 5 4 4 4 4 3 3 3 3 3 3 3 3 4 5 5 5 5 5 5 6 6 7 7
9 9 9 9 9 9 9 9 9 8 8 7 7 7 6 6 6 5 4 4 4 4 4 3 3 3 3 3 3 4 3 3 4 5 5 5 5 6 6 7 7 7 7
8 8 9 9 8 8 8 8 8 7 7 7 7 6 6 5 5 5 4 4 4 4 3 4 4 3 3 3 3 4 4 4 5 5 6 6 7 7 7 7 7 7 7
7 7 8 8 7 7 7 7 8 7 7 7 7 6 5 5 5 4 4 4 4 4 4 4 4 4 4 4 4 4 4 5 5 6 7 7 7 7 7 7 7 8 8
7 7 6 7 6 6 6 6 6 6 6 6 6 6 5 5 5 5 4 4 3 4 4 4 4 5 5 4 5 5 5 6 6 7 7 7 8 8 8 8 7 8 9
7 6 6 6 6 6 5 5 5 5 5 5 5 5 5 5 4 3 4 4 3 3 4 4 5 5 5 5 5 6 7 7 8 9 8 8 8 8 8 8 8 9 10
5 4 5 5 5 6 6 5 4 5 5 5 5 5 5 5 4 3 3 3 3 3 4 4 5 5 5 6 6 7 7 8 9 9 9 10 9 10 10 10 10 11 12
4 4 4 4 4 4 5 4 4 4 4 4 4 4 4 4 4 3 3 3 4 4 4 5 5 6 6 6 7 8 8 9 9 9 10 11 11 11 11 11 11 12 12
Wind_Direction
83 93 113 124 126 124 122 119 117 114 112 118 121 118 113 111 115 120 125 127 129 128 120 117 110 95 88 89 89 83 96 121 137 152 169 179 195 214 213 232 251 241 234
83 96 116 130 127 127 124 123 125 118 111 122 126 125 121 116 113 121 131 130 129 131 125 117 110 96 86 88 78 62 74 125 132 144 132 150 188 195 216 255 261 246 244
85 93 110 131 133 133 132 130 119 113 110 114 116 119 123 122 120 120 129 134 129 133 130 123 119 107 95 91 85 75 101 124 126 127 133 142 125 149 173 199 254 263 252
96 98 104 121 128 132 127 126 121 118 112 113 117 120 126 128 125 125 128 131 132 134 134 128 128 120 108 96 85 88 106 115 124 134 205 198 173 189 186 205 262 263 264
97 102 109 113 118 125 127 128 126 124 119 118 122 124 127 125 125 130 132 130 130 128 133 139 152 145 125 92 82 84 85 115 177 232 264 281 258 207 195 245 255 275 283
102 107 107 107 113 119 126 129 129 127 123 121 120 118 121 117 120 130 134 133 133 130 133 142 153 160 143 76 91 81 360 284 266 269 271 273 253 249 259 260 267 279 290
102 106 109 113 116 121 124 129 130 129 127 124 117 110 110 111 116 127 136 131 133 138 140 146 149 144 139 135 205 280 280 265 272 277 267 264 261 256 259 261 275 291 287
102 106 112 117 120 122 127 128 128 126 125 123 120 116 112 110 114 116 137 132 137 145 144 146 143 150 172 306 305 296 292 289 286 290 278 271 273 270 279 289 280 284 286
99 105 109 116 118 121 127 127 126 126 127 123 119 118 118 120 121 116 127 130 138 141 146 144 153 150 315 318 297 301 299 300 291 296 280 271 261 271 278 289 279 275 284
90 99 107 115 120 119 121 122 124 127 123 122 118 118 119 126 134 132 126 127 129 134 147 162 152 278 302 320 303 299 296 300 297 300 296 292 272 282 284 282 280 287 292
93 98 105 113 118 117 117 117 118 124 122 120 116 117 121 129 140 141 138 141 150 145 193 239 252 259 274 283 286 298 294 290 298 301 298 287 291 303 293 286 292 290 292
94 99 102 109 112 112 113 114 115 119 118 114 110 109 114 127 128 136 136 135 135 161 232 271 294 283 269 256 271 302 303 284 297 306 307 301 301 305 302 289 292 293 298
91 97 102 105 109 108 109 111 111 113 114 114 111 105 101 106 123 133 133 127 130 163 243 288 302 284 271 275 294 311 338 322 327 326 323 312 312 315 302 287 292 300 301
89 91 96 102 107 108 106 105 104 105 107 106 101 100 91 95 112 131 136 127 125 149 226 278 282 282 284 285 299 325 351 347 336 320 321 319 316 323 313 289 293 301 304
92 93 97 101 104 103 102 101 99 96 96 92 91 96 97 91 93 113 121 129 129 126 108 95 59 96 100 337 319 345 351 356 344 333 335 332 325 320 316 309 309 307 305
93 93 95 101 102 102 100 100 95 91 88 89 88 89 85 79 77 89 106 107 120 123 114 99 68 48 78 85 67 7 359 5 356 353 347 337 330 327 327 326 321 315 312
93 96 95 95 96 96 95 93 92 88 83 82 84 84 79 73 72 79 92 96 100 101 83 60 59 75 84 76 52 30 12 9 354 359 354 347 344 333 330 330 328 325 322
88 91 93 94 94 94 91 87 87 84 79 77 78 79 84 83 78 80 82 84 81 82 74 67 74 67 53 42 36 25 13 13 3 358 354 351 344 333 329 329 328 326 323
86 87 88 91 92 91 86 81 79 78 79 78 76 76 83 84 78 78 80 75 71 67 66 64 62 56 41 30 21 19 14 13 2 356 355 348 340 336 336 334 333 335 331
81 84 84 85 86 85 82 79 76 78 78 73 71 75 79 79 73 73 73 68 70 67 58 55 55 42 32 29 23 18 13 12 1 359 1 354 345 343 347 346 339 337 334
77 80 82 81 85 84 81 76 74 76 77 74 75 77 73 72 70 63 66 65 70 61 52 48 44 36 34 31 21 11 3 358 358 355 352 346 343 344 346 348 347 340 332
76 81 80 79 82 82 81 75 71 71 73 72 67 68 64 59 64 65 60 60 67 56 46 38 32 27 24 17 6 359 356 352 342 342 347 346 340 338 339 339 335 332 330
77 81 83 75 72 72 78 75 70 73 71 68 63 56 55 55 58 64 59 48 51 50 44 33 23 19 15 6 360 356 350 344 337 335 335 336 335 332 333 337 333 328 326
73 78 76 71 68 68 71 69 68 69 64 61 58 56 54 48 44 53 47 36 35 34 27 15 9 6 4 359 350 344 343 341 337 333 332 331 330 329 328 328 328 327 324
64 71 71 67 64 61 65 65 65 60 56 55 56 50 45 42 35 34 32 27 16 15 5 357 355 356 353 345 341 338 334 331 331 332 331 330 329 328 326 326 323 324 322
59 73 78 68 62 58 56 52 52 55 56 52 46 33 26 28 26 18 9 2 350 351 349 346 345 346 342 340 338 335 331 329 330 329 329 330 332 330 329 331 326 324 324
Height
5866 5865 5865 5866 5866 5867 5868 5869 5870 5871 5872 5874 5874 5876 5877 5878 5879 5880 5881 5882 5883 5883 5884 5885 5885 5886 5886 5886 5886 5886 5886 5886 5886 5887 5888 5888 5888 5889 5890 5890 5890 5890 5891
5866 5866 5866 5866 5867 5868 5869 5870 5871 5872 5873 5874 5876 5877 5878 5879 5880 5881 5882 5883 5884 5885 5885 5886 5886 5886 5887 5887 5886 5886 5884 5885 5886 5888 5888 5888 5889 5889 5890 5890 5890 5891 5891
5867 5867 5867 5867 5867 5868 5869 5870 5872 5873 5875 5876 5877 5878 5879 5880 5881 5882 5883 5884 5885 5885 5886 5886 5887 5887 5887 5887 5887 5886 5884 5885 5887 5888 5889 5889 5889 5889 5890 5890 5891 5891 5891
5867 5867 5867 5867 5868 5869 5870 5872 5873 5874 5876 5877 5878 5879 5880 5881 5882 5883 5884 5885 5885 5886 5887 5887 5887 5887 5887 5887 5887 5887 5887 5887 5888 5889 5889 5889 5889 5890 5890 5890 5890 5891 5891
5867 5868 5868 5869 5869 5870 5871 5873 5874 5875 5877 5878 5879 5880 5881 5882 5883 5884 5884 5885 5886 5887 5887 5887 5887 5887 5888 5888 5888 5888 5888 5888 5889 5889 5889 5889 5889 5890 5890 5890 5890 5890 5890
5868 5869 5869 5870 5871 5872 5873 5874 5875 5877 5878 5879 5880 5881 5882 5883 5884 5885 5885 5886 5887 5887 5888 5888 5888 5888 5888 5888 5888 5888 5888 5888 5888 5889 5889 5889 5889 5889 5889 5889 5890 5890 5890
5869 5869 5870 5871 5872 5873 5874 5875 5877 5878 5879 5880 5881 5882 5883 5884 5884 5885 5886 5887 5887 5888 5888 5888 5889 5889 5889 5888 5889 5889 5888 5888 5888 5888 5888 5889 5889 5889 5889 5889 5889 5889 5889
5869 5870 5870 5871 5873 5874 5875 5876 5878 5879 5880 5881 5882 5883 5884 5884 5885 5885 5886 5887 5888 5888 5888 5889 5889 5889 5889 5889 5889 5889 5888 5888 5888 5888 5888 5888 5888 5888 5888 5888 5888 5888 5888
5870 5871 5871 5872 5873 5875 5876 5877 5879 5880 5881 5882 5883 5884 5884 5885 5885 5886 5886 5887 5888 5888 5889 5889 5889 5889 5889 5888 5888 5888 5888 5888 5888 5888 5888 5888 5888 5887 5887 5887 5887 5887 5887
5871 5871 5872 5873 5875 5876 5877 5879 5880 5881 5882 5883 5884 5884 5885 5885 5886 5886 5887 5888 5888 5889 5889 5889 5889 5889 5889 5888 5888 5888 5888 5888 5888 5888 5887 5887 5887 5887 5887 5887 5887 5887 5887
5873 5873 5874 5875 5876 5878 5879 5880 5881 5882 5883 5884 5884 5885 5885 5886 5886 5887 5887 5888 5888 5889 5889 5889 5889 5889 5889 5888 5888 5888 5888 5887 5887 5887 5887 5886 5886 5886 5886 5886 5886 5886 5886
5875 5875 5876 5877 5878 5880 5881 5882 5883 5884 5884 5885 5885 5886 5886 5886 5887 5887 5888 5888 5889 5889 5889 5889 5889 5889 5889 5889 5888 5888 5887 5887 5887 5887 5886 5886 5886 5886 5885 5885 5885 5885 5884
5877 5877 5878 5879 5880 5882 5883 5884 5884 5885 5885 5886 5886 5886 5887 5887 5887 5888 5888 5889 5889 5889 5889 5889 5889 5889 5888 5888 5888 5888 5887 5887 5887 5886 5886 5886 5885 5885 5884 5884 5883 5884 5883
5881 5881 5881 5882 5883 5884 5885 5885 5886 5886 5887 5887 5887 5887 5887 5888 5888 5888 5888 5889 5889 5890 5889 5889 5889 5889 5889 5888 5888 5888 5887 5887 5886 5886 5885 5885 5885 5884 5883 5882 5882 5882 5882
5884 5884 5884 5885 5885 5886 5887 5887 5887 5888 5888 5888 5888 5888 5888 5888 5889 5889 5889 5889 5890 5890 5890 5889 5889 5889 5889 5888 5888 5888 5887 5887 5886 5886 5885 5884 5884 5884 5883 5883 5882 5881 5881
5887 5887 5887 5887 5888 5888 5888 5889 5889 5889 5889 5889 5889 5889 5889 5889 5889 5889 5889 5889 5890 5890 5889 5889 5889 5889 5889 5888 5888 5888 5887 5887 5886 5885 5884 5884 5883 5883 5883 5882 5881 5880 5879
5889 5889 5889 5890 5890 5890 5890 5891 5891 5890 5890 5890 5890 5890 5890 5890 5890 5891 5890 5890 5890 5890 5890 5890 5890 5890 5889 5889 5889 5888 5888 5887 5886 5885 5884 5884 5883 5883 5882 5881 5880 5879 5878
5892 5892 5892 5892 5892 5892 5892 5892 5892 5892 5891 5891 5891 5891 5891 5891 5891 5891 5891 5891 5891 5890 5890 5890 5890 5890 5890 5889 5889 5889 5888 5887 5886 5885 5884 5884 5883 5882 5882 5881 5880 5879 5877
5895 5894 5894 5894 5894 5894 5894 5894 5894 5893 5893 5892 5892 5892 5892 5892 5892 5892 5892 5892 5892 5892 5891 5891 5891 5891 5890 5890 5890 5889 5888 5888 5886 5885 5884 5883 5883 5882 5881 5880 5879 5878 5877
5897 5897 5896 5896 5896 5896 5896 5895 5895 5895 5894 5894 5894 5894 5894 5894 5894 5894 5894 5894 5893 5893 5893 5892 5892 5891 5891 5890 5890 5889 5889 5888 5887 5886 5884 5883 5883 5882 5880 5879 5878 5877 5876
5899 5899 5898 5898 5898 5898 5897 5897 5897 5896 5896 5896 5895 5895 5895 5895 5895 5895 5895 5895 5894 5894 5894 5893 5892 5891 5891 5891 5890 5890 5889 5888 5887 5886 5885 5884 5883 5881 5880 5879 5877 5876 5875
5901 5900 5900 5900 5900 5899 5899 5899 5899 5898 5898 5898 5897 5897 5896 5896 5895 5895 5896 5895 5895 5895 5894 5893 5893 5892 5891 5891 5890 5889 5889 5889 5887 5886 5884 5883 5882 5880 5879 5878 5877 5875 5874
5902 5902 5902 5902 5901 5901 5900 5900 5900 5900 5899 5899 5898 5898 5897 5897 5896 5896 5896 5896 5896 5895 5895 5894 5893 5893 5892 5891 5890 5890 5889 5887 5886 5885 5884 5882 5881 5880 5878 5877 5875 5874 5872
5903 5903 5903 5903 5902 5902 5901 5901 5901 5900 5900 5900 5900 5899 5899 5898 5897 5897 5897 5897 5896 5896 5895 5895 5894 5893 5892 5891 5890 5889 5888 5887 5885 5884 5883 5881 5880 5878 5877 5875 5874 5872 5871
5904 5904 5903 5903 5903 5903 5902 5902 5902 5901 5901 5901 5901 5900 5899 5899 5898 5898 5897 5897 5897 5896 5895 5895 5894 5893 5892 5891 5890 5888 5887 5886 5884 5883 5882 5880 5879 5877 5875 5873 5872 5871 5869
5904 5904 5904 5904 5904 5903 5903 5903 5902 5902 5902 5902 5901 5901 5900 5899 5899 5898 5897 5897 5897 5896 5895 5894 5893 5892 5891 5890 5889 5887 5886 5885 5883 5882 5880 5879 5877 5875 5873 5872 5870 5869 5867